Hourly Data Report for October 13, 2017

All times are specified in Local Standard Time (LST). Add 1 hour to adjust for Daylight Saving Time where and when it is observed.

GRAND MANAN SAR CS
NEW BRUNSWICK

44°42'43.400" N
66°48'06.900" W
78.20 m
8101925
71030
XGM

Download Data

Hourly Data (October 2017)
Hourly Data Report for October 13, 2017
Temp Definition
°C
Dew Point Temp Definition
°C
Rel Hum Definition
%
Wind Dir Definition
10's deg

Wind Spd Definition
km/h
Visibility Definition
km
Stn Press Definition
kPa
Hmdx Definition


Wind Chill Definition


Weather Definition


TIME
00:00 -0.9 -1.0 99 34 3   102.32   -2 LegendNANA
01:00 -1.6 -1.7 99   0   102.35     LegendNANA
02:00 -1.1 -1.2 100 9 2   102.36   -2 LegendNANA
03:00 -2.1 -2.1 99 0 1   102.36   -2 LegendNANA
04:00 -2.0 -2.0 100 0 1   102.39   -2 LegendNANA
05:00 -2.2 -2.2 100 6 3   102.41   -3 LegendNANA
06:00 -2.4 -2.5 100   0   102.45     LegendNANA
07:00 -2.1 -2.1 100   0   102.51     LegendNANA
08:00 1.7 1.3 98   0   102.56     LegendNANA
09:00 11.7 7.7 76 13 8   102.55     LegendNANA
10:00 12.8 3.6 54 18 12   102.56     LegendNANA
11:00 13.7 3.6 50 19 11   102.55     LegendNANA
12:00 13.8 2.9 48 21 14   102.52     LegendNANA
13:00 13.7 2.5 47 20 14   102.45     LegendNANA
14:00 13.8 3.3 49 20 14   102.39     LegendNANA
15:00 13.5 3.0 49 19 17   102.35     LegendNANA
16:00 12.3 2.9 53 21 15   102.29     LegendNANA
17:00 11.0 5.3 68 20 12   102.25     LegendNANA
18:00 9.2 6.3 82 22 7   102.25     LegendNANA
19:00 8.3 6.7 90 21 8   102.20     LegendNANA
20:00 7.5 6.1 91 21 7   102.17     LegendNANA
21:00 8.6 7.5 93 21 10   102.14     LegendNANA
22:00 9.5 8.0 91 20 12   102.14     LegendNANA
23:00 9.8 7.7 87 20 13   102.07     LegendNANA

Notes on Data Quality.

Legend

  • E = Estimated
  • M = Missing
  • NA = Not Available
  • ‡ = Partner data that is not subject to review by the National Climate Archives
Date modified: